#timestamp,LO_Frequency,Hit,StdDev 
1575918015.1,286046998.3,N
1575918016.0,286046998.3,N
1575918035.8,286046998.5,N
1575918055.6,286047001.3,N
1575918075.5,286047002.3,N
1575918095.3,286047002.7,N
1575918115.2,286046999.8,N
1575918135.9,286047001.2,N
1575918155.7,286046999.1,N
1575918175.6,286046998.8,N
1575918195.4,286046998.1,N
1575918215.2,286046998.6,N
1575918235.1,286046998.6,N
1575918236.0,286046998.6,N
1575918255.8,286047002.8,N
1575918275.7,286047000.2,N
1575918295.5,286047002.8,N
1575918315.3,286047001.0,N
1575918335.2,286046998.8,N
1575918355.9,286047000.8,N
1575918375.7,286046999.8,N
1575918395.6,286046999.7,N
1575918415.4,286047000.2,N
1575918435.2,286047002.5,N
1575918455.1,286047002.6,N
1575918456.0,286047002.6,N
1575918475.8,286047000.9,N
1575918495.7,286047001.1,N
1575918515.5,286046998.4,N
1575918535.3,286046998.8,N
1575918555.2,286046996.8,N
1575918575.0,286046999.5,N
1575918575.9,286046999.5,N
1575918595.7,286046996.9,N
1575918615.6,286046999.0,N
1575918635.4,286046998.4,N
1575918655.3,286046999.1,N
1575918675.1,286046996.6,N
1575918676.0,286046996.6,N
1575918695.8,286046997.9,N
1575918715.7,286046997.1,N
1575918735.5,286046997.7,N
1575918755.3,286046997.7,N
1575918775.2,286046997.5,N
1575918795.0,286046996.9,N
1575918795.9,286046996.9,N
1575918815.8,286046997.8,N
1575918835.6,286046996.8,N
1575918855.4,286046996.6,N
1575918875.3,286046997.0,N
1575918895.1,286046997.1,N
1575918915.8,286046999.5,N
1575918935.7,286046997.8,N
1575918955.5,286046997.2,N
1575918975.4,286046997.2,N
1575918995.2,286046998.8,N
1575919015.0,286047001.0,N
1575919015.9,286047001.0,N
1575919035.8,286047000.5,N
1575919055.6,286046998.7,N
1575919075.5,286047000.9,N
1575919095.3,286046999.3,N
1575919115.1,286047000.9,N
1575919135.9,286047001.2,N
1575919155.7,286047000.6,N
1575919175.5,286047000.2,N
1575919195.4,286046998.2,N
1575919215.2,286047000.6,N
1575919235.0,286046998.3,N
1575919236.0,286046998.3,N
1575919255.8,286046999.6,N
1575919275.6,286046996.7,N
1575919295.5,286046996.5,N
1575919315.3,286047001.2,N
1575919335.1,286046999.4,N
1575919355.9,286046997.1,N
1575919375.7,286046996.8,N
1575919395.5,286046997.8,N
1575919415.4,286046995.0,Y
1575919435.2,286046999.3,P
1575919455.1,286046999.1,P
1575919456.0,286046999.1,P
1575919475.8,286046999.5,Y
1575919495.6,286046998.3,P
1575919515.5,286047001.1,N
1575919535.3,286047001.1,N
1575919555.2,286047000.5,N
1575919575.9,286047001.0,N
1575919595.7,286047000.1,N
1575919615.6,286046999.8,N
1575919635.4,286046999.8,N
1575919655.2,286046998.3,N
1575919675.1,286046999.5,N
1575919676.0,286046999.5,N
1575919695.8,286046999.5,N
1575919715.7,286046998.8,N
1575919735.5,286046999.1,N
1575919755.3,286046998.1,N
1575919775.2,286046998.1,N
1575919795.0,286046998.7,N
1575919795.9,286046998.7,N
1575919815.7,286046999.3,N
1575919835.6,286047000.9,N
1575919855.4,286046999.9,N
1575919875.3,286047000.0,N
1575919895.1,286047000.3,N
1575919896.0,286047000.3,N
1575919915.8,286047000.0,N
1575919935.7,286047001.0,N
1575919955.5,286047002.4,N
1575919975.3,286046999.9,N
1575919995.2,286047002.6,N
1575920015.0,286047000.5,N
1575920015.9,286047000.5,N
1575920035.8,286047001.2,N
1575920055.6,286046999.7,N
1575920075.4,286047000.7,N
1575920095.3,286047001.0,N
1575920115.1,286047000.9,N
1575920135.8,286047000.3,N
1575920155.7,286047002.5,N
1575920175.5,286047002.1,N
1575920195.4,286047001.6,N
1575920215.2,286047001.8,N
1575920235.0,286047002.6,N
1575920235.9,286047002.6,N
1575920255.8,286047000.2,N
1575920275.6,286047002.5,N
1575920295.4,286047000.8,N
1575920315.3,286047000.5,N
1575920335.1,286046999.3,N
1575920355.9,286046998.9,N
1575920375.7,286046999.4,N
1575920395.5,286046997.2,N
1575920415.4,286046999.0,N
1575920435.2,286046998.7,N
1575920455.0,286047000.5,N
1575920455.9,286047000.5,N
1575920475.8,286047000.9,N
1575920525.7,286047001.0,E
1575920535.6,286047000.3,N
1575920555.4,286047000.8,P
1575920575.2,286047001.2,P
1575920595.1,286046998.7,Y
1575920596.0,286046998.7,P
1575920615.8,286046997.1,N
1575920635.7,286047001.2,N
1575920655.5,286046999.3,N
1575920675.3,286046998.2,N
1575920695.2,286046998.2,N
1575920715.0,286046998.4,N
1575920715.9,286046998.4,N
1575920735.8,286047002.5,N
1575920755.6,286046998.5,N
1575920775.4,286046996.5,N
1575920795.3,286046996.6,N
1575920815.1,286046999.0,N
1575920835.8,286046997.8,N
1575920855.7,286046996.7,N
1575920875.5,286046996.7,N
1575920895.4,286046997.2,N
1575920915.2,286046996.9,N
1575920935.0,286046997.7,N
1575920935.9,286046997.7,N
1575920955.8,286046996.8,N
1575920975.6,286046996.8,N
1575920995.4,286046996.0,N
1575921015.3,286046996.1,N
1575921035.1,286046995.8,N
1575921055.9,286046997.0,N
1575921075.7,286046998.4,N
1575921095.5,286046996.5,N
1575921115.4,286046997.1,N
1575921135.2,286046997.4,N
1575921155.0,286046999.1,N
1575921155.9,286046999.1,N
1575921175.8,286046999.5,N
1575921195.6,286047001.2,N
1575921215.4,286047002.2,N
1575921235.3,286047002.4,N
1575921255.1,286047001.1,N
1575921275.9,286046998.2,N
1575921295.7,286046999.4,N
1575921315.5,286046996.8,N
1575921335.4,286047000.7,N
1575921355.2,286047001.2,N
1575921375.0,286046999.6,N
1575921376.0,286046999.6,N
1575921395.8,286046999.2,N
1575921415.6,286046999.4,N
1575921435.5,286046999.2,N
1575921455.3,286046997.2,N
1575921475.1,286046997.6,N
1575921495.9,286046997.3,N
1575921515.7,286046998.0,N
1575921535.6,286046997.4,N
1575921555.4,286046996.1,N
1575921575.2,286046997.5,N
1575921595.1,286046997.6,N
1575921596.0,286046997.6,N
